User: anonymous   Login
Location: Boiro
(42.6475°N, 8.8834°W)
Time: 20:57:14
(UTC+01:00)
Language:

FO-99 - Orbit

View from above orbital plane
View from above orbital plane
View from above satellite
View from above satellite

Ground track
Ground track

The orbit data is extracted from the following two-line orbital elements,

1 43937U 19003F   22019.33020197  .00009056  00000-0  33889-3 0  9992
2 43937  97.1507  58.7095 0021246 330.1655  29.8372 15.27310990167191
Epoch (UTC): 19 January 2022 07:55:29
Eccentricity: 0.0021246
inclination: 97.1507°
perigee height: 469 km
apogee height: 498 km
right ascension of ascending node: 58.7095°
argument of perigee: 330.1655°
revolutions per day: 15.27310990
mean anomaly at epoch: 29.8372°
orbit number at epoch: 16719

The dashed part of the orbit path shows where the satellite is in the earth's shadow,  

DLR